| time (UTC) | temp C | wind direction | speed KPH | gust KPH | rain 1hr cm | rain 24hr cm | rain mn cm | humidity % | barometer mb |
| 20260510190009 | 11 | 33 | 27.4 | 41.8 | 0.00 | 0.00 | 0.00 | 79 | 1016.0 |
| 20260510184506 | 11 | 44 | 25.7 | 40.2 | 0.00 | 0.00 | 0.00 | 79 | 1016.0 |
| 20260510183005 | 11 | 30 | 30.6 | 43.5 | 0.00 | 0.00 | 0.00 | 78 | 1016.1 |
| 20260510181505 | 11 | 42 | 32.2 | 49.9 | 0.00 | 0.00 | 0.00 | 78 | 1016.1 |
| 20260510180108 | 12 | 34 | 29.0 | 45.1 | 0.00 | 0.00 | 0.00 | 78 | 1016.2 |
| 20260510174502 | 12 | 51 | 32.2 | 46.7 | 0.00 | 0.00 | 0.00 | 77 | 1016.0 |
| 20260510173059 | 12 | 33 | 27.4 | 45.1 | 0.00 | 0.00 | 0.00 | 77 | 1016.3 |
| 20260510171611 | 12 | 41 | 30.6 | 48.3 | 0.00 | 0.00 | 0.00 | 76 | 1016.0 |
| 20260510170058 | 12 | 34 | 29.0 | 49.9 | 0.00 | 0.00 | 0.00 | 76 | 1016.1 |
| 20260510164609 | 12 | 42 | 27.4 | 51.5 | 0.00 | 0.00 | 0.00 | 76 | 1016.1 |
| 20260510163138 | 12 | 47 | 30.6 | 48.3 | 0.00 | 0.00 | 0.00 | 77 | 1016.1 |
| 20260510161553 | 12 | 46 | 33.8 | 54.7 | 0.00 | 0.00 | 0.00 | 77 | 1016.2 |
| 20260510160155 | 12 | 27 | 32.2 | 46.7 | 0.00 | 0.00 | 0.00 | 77 | 1016.0 |
| 20260510154554 | 12 | 46 | 27.4 | 51.5 | 0.00 | 0.00 | 0.00 | 77 | 1016.1 |
| 20260510153101 | 12 | 49 | 30.6 | 45.1 | 0.00 | 0.00 | 0.00 | 76 | 1016.3 |
| 20260510151611 | 12 | 56 | 32.2 | 51.5 | 0.00 | 0.00 | 0.00 | 76 | 1016.1 |
| 20260510144648 | 13 | 44 | 30.6 | 46.7 | 0.00 | 0.00 | 0.00 | 76 | 1016.3 |
| 20260510143101 | 13 | 39 | 32.2 | 46.7 | 0.00 | 0.00 | 0.00 | 75 | 1016.4 |
| 20260510141553 | 12 | 39 | 30.6 | 49.9 | 0.00 | 0.00 | 0.00 | 75 | 1016.2 |
| 20260510140048 | 13 | 49 | 24.1 | 43.5 | 0.00 | 0.00 | 0.00 | 76 | 1016.4 |
| 20260510134552 | 13 | 44 | 32.2 | 54.7 | 0.00 | 0.00 | 0.00 | 76 | 1016.3 |
| 20260510133045 | 13 | 84 | 35.4 | 53.1 | 0.00 | 0.00 | 0.00 | 75 | 1016.3 |
| 20260510131549 | 13 | 98 | 32.2 | 49.9 | 0.00 | 0.00 | 0.00 | 76 | 1016.4 |
| 20260510130044 | 13 | 34 | 27.4 | 53.1 | 0.00 | 0.00 | 0.00 | 77 | 1016.4 |
| 20260510124545 | 13 | 40 | 29.0 | 45.1 | 0.00 | 0.00 | 0.00 | 76 | 1016.6 |
| 20260510123040 | 13 | 39 | 30.6 | 49.9 | 0.00 | 0.00 | 0.00 | 76 | 1016.7 |
| 20260510121539 | 13 | 82 | 27.4 | 45.1 | 0.00 | 0.00 | 0.00 | 76 | 1016.8 |
| 20260510120039 | 13 | 37 | 29.0 | 45.1 | 0.00 | 0.00 | 0.00 | 76 | 1016.7 |
| 20260510114544 | 13 | 60 | 32.2 | 49.9 | 0.00 | 0.00 | 0.00 | 76 | 1016.8 |
| 20260510113036 | 13 | 44 | 27.4 | 45.1 | 0.00 | 0.00 | 0.00 | 76 | 1016.8 |
| 20260510111535 | 13 | 39 | 29.0 | 48.3 | 0.00 | 0.00 | 0.00 | 75 | 1016.8 |
| 20260510110032 | 13 | 49 | 30.6 | 43.5 | 0.00 | 0.00 | 0.00 | 75 | 1016.8 |
| 20260510104531 | 13 | 56 | 27.4 | 43.5 | 0.00 | 0.00 | 0.00 | 75 | 1016.9 |
| 20260510103028 | 12 | 67 | 30.6 | 49.9 | 0.00 | 0.00 | 0.00 | 75 | 1017.0 |
| 20260510101525 | 12 | 53 | 27.4 | 45.1 | 0.00 | 0.00 | 0.00 | 75 | 1016.8 |
| 20260510100036 | 12 | 58 | 30.6 | 45.1 | 0.00 | 0.00 | 0.00 | 75 | 1016.8 |
| 20260510094529 | 12 | 70 | 27.4 | 49.9 | 0.00 | 0.00 | 0.00 | 75 | 1016.9 |
| 20260510093022 | 12 | 54 | 27.4 | 45.1 | 0.00 | 0.00 | 0.00 | 76 | 1016.8 |
| 20260510091523 | 12 | 79 | 29.0 | 40.2 | 0.00 | 0.00 | 0.00 | 76 | 1016.7 |
| 20260510090023 | 12 | 88 | 25.7 | 46.7 | 0.00 | 0.00 | 0.00 | 76 | 1016.8 |
| 20260510084518 | 12 | 70 | 32.2 | 49.9 | 0.00 | 0.00 | 0.00 | 77 | 1016.8 |
| 20260510083021 | 12 | 49 | 30.6 | 51.5 | 0.00 | 0.00 | 0.00 | 76 | 1016.8 |
| 20260510081515 | 12 | 61 | 29.0 | 43.5 | 0.00 | 0.00 | 0.00 | 77 | 1016.9 |
| 20260510080024 | 12 | 46 | 29.0 | 49.9 | 0.00 | 0.00 | 0.00 | 78 | 1017.0 |
| 20260510074510 | 12 | 100 | 27.4 | 41.8 | 0.00 | 0.00 | 0.00 | 79 | 1016.8 |
| 20260510073005 | 12 | 76 | 25.7 | 38.6 | 0.00 | 0.00 | 0.00 | 81 | 1016.7 |
| 20260510071503 | 12 | 51 | 24.1 | 41.8 | 0.00 | 0.00 | 0.00 | 82 | 1016.8 |
| 20260510064556 | 11 | 64 | 24.1 | 45.1 | 0.00 | 0.00 | 0.00 | 83 | 1016.5 |
| 20260510063054 | 11 | 51 | 27.4 | 45.1 | 0.00 | 0.00 | 0.00 | 83 | 1016.4 |
| 20260510061555 | 11 | 37 | 27.4 | 43.5 | 0.00 | 0.00 | 0.00 | 84 | 1016.3 |
| 20260510060053 | 11 | 63 | 29.0 | 43.5 | 0.00 | 0.00 | 0.00 | 85 | 1016.1 |
| 20260510054549 | 11 | 56 | 22.5 | 38.6 | 0.00 | 0.00 | 0.00 | 85 | 1016.0 |
| 20260510053045 | 11 | 40 | 25.7 | 38.6 | 0.00 | 0.00 | 0.00 | 85 | 1015.7 |
| 20260510051547 | 11 | 37 | 25.7 | 40.2 | 0.00 | 0.00 | 0.00 | 86 | 1015.7 |
| 20260510050141 | 11 | 47 | 25.7 | 43.5 | 0.00 | 0.00 | 0.00 | 86 | 1015.7 |
| 20260510044538 | 11 | 65 | 25.7 | 45.1 | 0.00 | 0.00 | 0.00 | 87 | 1015.7 |
| 20260510043041 | 11 | 49 | 27.4 | 45.1 | 0.00 | 0.00 | 0.00 | 87 | 1015.6 |
| 20260510041536 | 11 | 41 | 27.4 | 43.5 | 0.00 | 0.00 | 0.00 | 87 | 1015.8 |
| 20260510040035 | 11 | 61 | 25.7 | 41.8 | 0.00 | 0.00 | 0.00 | 87 | 1016.0 |
| 20260510034541 | 11 | 46 | 27.4 | 49.9 | 0.00 | 0.00 | 0.00 | 87 | 1016.0 |
| 20260510033033 | 11 | 58 | 32.2 | 46.7 | 0.00 | 0.00 | 0.00 | 87 | 1016.0 |
| 20260510031531 | 11 | 44 | 30.6 | 53.1 | 0.00 | 0.00 | 0.00 | 87 | 1016.1 |
| 20260510030030 | 11 | 49 | 29.0 | 49.9 | 0.00 | 0.00 | 0.00 | 87 | 1016.1 |
| 20260510024529 | 11 | 51 | 30.6 | 48.3 | 0.00 | 0.00 | 0.00 | 87 | 1016.3 |
| 20260510023027 | 11 | 51 | 25.7 | 48.3 | 0.00 | 0.00 | 0.00 | 87 | 1016.3 |
| 20260510021531 | 11 | 51 | 27.4 | 41.8 | 0.00 | 0.00 | 0.00 | 87 | 1016.4 |
| 20260510020028 | 11 | 40 | 29.0 | 49.9 | 0.00 | 0.00 | 0.00 | 87 | 1016.3 |
| 20260510014526 | 11 | 46 | 35.4 | 54.7 | 0.00 | 0.00 | 0.00 | 86 | 1016.3 |
| 20260510013025 | 11 | 27 | 33.8 | 49.9 | 0.00 | 0.00 | 0.00 | 86 | 1016.5 |
| 20260510011535 | 11 | 42 | 32.2 | 51.5 | 0.00 | 0.00 | 0.00 | 86 | 1016.7 |
| 20260510010020 | 11 | 37 | 32.2 | 46.7 | 0.00 | 0.00 | 0.00 | 86 | 1016.7 |
| 20260510004518 | 11 | 39 | 27.4 | 43.5 | 0.00 | 0.00 | 0.00 | 86 | 1016.8 |
| 20260510003023 | 11 | 44 | 30.6 | 48.3 | 0.00 | 0.00 | 0.00 | 86 | 1016.9 |
| 20260510001516 | 11 | 27 | 32.2 | 48.3 | 0.00 | 0.00 | 0.00 | 86 | 1017.0 |
| 20260510000017 | 11 | 46 | 30.6 | 48.3 | 0.00 | 0.00 | 0.00 | 86 | 1017.2 |
| 20260509234513 | 11 | 47 | 27.4 | 48.3 | 0.00 | 0.00 | 0.00 | 86 | 1017.2 |
| 20260509233013 | 11 | 39 | 25.7 | 43.5 | 0.00 | 0.00 | 0.00 | 86 | 1017.4 |
| 20260509231512 | 11 | 44 | 27.4 | 45.1 | 0.00 | 0.00 | 0.00 | 86 | 1017.4 |
| 20260509230007 | 11 | 46 | 27.4 | 43.5 | 0.00 | 0.00 | 0.00 | 86 | 1017.4 |
| 20260509224505 | 11 | 51 | 25.7 | 41.8 | 0.00 | 0.00 | 0.00 | 86 | 1017.4 |
| 20260509223107 | 11 | 53 | 25.7 | 43.5 | 0.00 | 0.00 | 0.00 | 86 | 1017.4 |
| 20260509221559 | 11 | 32 | 29.0 | 43.5 | 0.00 | 0.00 | 0.00 | 86 | 1017.4 |
| 20260509220100 | 11 | 68 | 25.7 | 45.1 | 0.00 | 0.00 | 0.00 | 86 | 1017.5 |
| 20260509214557 | 11 | 60 | 20.9 | 40.2 | 0.00 | 0.00 | 0.00 | 86 | 1017.5 |
| 20260509213153 | 11 | 52 | 24.1 | 43.5 | 0.00 | 0.00 | 0.00 | 86 | 1017.7 |
| 20260509211551 | 12 | 63 | 22.5 | 33.8 | 0.00 | 0.00 | 0.00 | 86 | 1017.9 |
| 20260509210053 | 12 | 58 | 20.9 | 33.8 | 0.00 | 0.00 | 0.00 | 86 | 1017.8 |
| 20260509204552 | 12 | 33 | 24.1 | 37.0 | 0.00 | 0.00 | 0.00 | 86 | 1017.7 |
| 20260509203044 | 12 | 44 | 20.9 | 40.2 | 0.00 | 0.00 | 0.00 | 86 | 1017.5 |
| 20260509201540 | 12 | 47 | 20.9 | 38.6 | 0.00 | 0.00 | 0.00 | 86 | 1017.4 |
| 20260509200052 | 12 | 25 | 19.3 | 35.4 | 0.00 | 0.00 | 0.00 | 86 | 1017.5 |
| 20260509194538 | 12 | 96 | 19.3 | 33.8 | 0.00 | 0.00 | 0.00 | 86 | 1017.5 |
| 20260509193034 | 12 | 58 | 20.9 | 37.0 | 0.00 | 0.00 | 0.00 | 86 | 1017.4 |
| 20260509191533 | 12 | 69 | 20.9 | 35.4 | 0.00 | 0.00 | 0.00 | 85 | 1017.4 |